Regional Weather Roundup
Issued by NWS

Home | Current Version | Previous Version | Graphics & Text | Print | Product List | Glossary On
Versions: 1 2 3 4 5 6 7 8 9 10 11 12 13 14 15 16 17 18 19 20 21 22 23 24 25 26 27
000
ASUS45 KBOI 161310
RWRID
WEATHER ROUNDUP FOR IDAHO
NATIONAL WEATHER SERVICE BOISE ID
700 AM MDT WED APR 16 2014

NOTE: "FAIR" INDICATES FEW OR NO CLOUDS BELOW 12000 FEET
WITH NO SIGNIFICANT WEATHER AND/OR OBSTRUCTIONS TO VISIBILITY

IDZ012-014-161400-
SOUTHWEST IDAHO


CITY           SKY/WX    TMP DP  RH WIND       PRES   REMARKS
BOISE          MOCLDY    35  22  58 SE3       30.03S
CALDWELL       PTCLDY    37  19  48 NW7       30.07R WCI  32
MOUNTAIN HOME  MOCLDY    32  18  56 N6        30.03R WCI  26
$$

IDZ016-017-161400-
SOUTHCENTRAL IDAHO


CITY           SKY/WX    TMP DP  RH WIND       PRES   REMARKS
BURLEY         MOCLDY    35  24  64 E5        30.01R WCI  31
JEROME         CLOUDY    36  19  50 SW5       30.01S WCI  32
TWIN FALLS     CLOUDY    38  16  40 S9        30.01R WCI  31
$$

IDZ019>023-161400-
SOUTHEAST IDAHO


CITY           SKY/WX    TMP DP  RH WIND       PRES   REMARKS
IDAHO FALLS    PTCLDY    25  15  66 W3        30.02R
POCATELLO      CLEAR     25  17  72 W3        30.03R
REXBURG        PTCLDY    27  16  63 NE3       30.01R
$$

IDZ006-010-011-018-031-032-161400-
CENTRAL IDAHO MOUNTAINS


CITY           SKY/WX    TMP DP  RH WIND       PRES   REMARKS
MCCALL         PTCLDY    23  18  81 CALM      30.01R
HAILEY         MOCLDY    32  10  40 W6        30.02R WCI  26
STANLEY          N/A     16   9  74 S3        30.03R
SALMON         PTCLDY    27  18  69 CALM      30.03R
CHALLIS        PTCLDY    27  14  58 CALM      30.03R
$$

IDZ002-004-006-007-026-161400-
NORTHERN IDAHO


CITY           SKY/WX    TMP DP  RH WIND       PRES   REMARKS
LEWISTON       PTCLDY    42  25  50 SW6       30.04S
LOWELL           N/A     38  36  92 CALM      30.11R
COEUR D`ALENE  CLOUDY    39  30  70 S13       30.00R WCI  32
MULLAN PASS    MOCLDY    25  21  85 SW7       29.92S WCI  17
$$



USA.gov is the U.S. government's official web portal to all federal, state and local government web resources and services.